Location: Tauranga
(37.6860°S, 176.1670°E)
Time: 15:31:42
(UTC+13:00)

SL-08 R/B - Pass Details

Date: 24 January 2019
Orbit: 946 x 994 km, 83.0° (Epoch: 15 February)

Event Time Altitude Azimuth Distance (km) Brightness Sun altitude
Exits shadow 22:39:26 22° 352° (N) 1,971 5.7 -20.7°
Maximum altitude 22:43:39 85° 263° (W) 968 4.4 -21.3°
Drops below altitude 10° 22:49:53 10° 174° (S) 2,720 7.4 -22.1°
Sets 22:52:25 0° 173° (S) 3,679 8.2 -22.4°
